Location: Ab? ar R?sh Ba?r?
(24.1861°N, 32.8847°E)
Time: 12:03:17
(UTC+00:00)

Cosmos 2228 - Pass Details

Date: 24 October 2021
Orbit: 587 x 619 km, 82.5° (Epoch: 04 December)

Event Time Altitude Azimuth Distance (km) Brightness Sun altitude
Rises 16:34:39 0° 184° (S) 2,859 6.6 -18.9°
Reaches altitude 10° 16:36:51 10° 183° (S) 1,961 5.7 -19.4°
Maximum altitude 16:41:12 87° 96° (E) 620 2.9 -20.4°
Drops below altitude 10° 16:45:36 10° 6° (N) 1,981 5.5 -21.4°
Sets 16:47:49 0° 6° (N) 2,890 6.4 -21.9°
